Location: Unspecified
(0.0000°N, 0.0000°E)
Time: 05:45:11
(UTC+00:00)

Envisat - Pass Details

Date: 01 August 2020
Orbit: 764 x 766 km, 98.1° (Epoch: 13 August)

Event Time Altitude Azimuth Distance (km) Brightness Sun altitude
Rises 18:35:13 0° 192° (SSW) 3,231 6.2 -6.9°
Reaches altitude 10° 18:37:57 10° 206° (SSW) 2,302 5.6 -7.5°
Maximum altitude 18:41:53 23° 258° (WSW) 1,583 5.5 -8.5°
Drops below altitude 10° 18:45:49 10° 309° (NW) 2,294 6.7 -9.4°
Sets 18:48:33 0° 323° (NW) 3,217 7.2 -10.1°
